Weather History for Lancaster, TX

Change the Weather History Date:

Sunday, November 25, 2012

  Actual Average (KRBD) Record (KRBD)
Temperature  
Mean Temperature 54 °F -  
Max Temperature 73 °F 60 °F 75 °F (2010)
Min Temperature 35 °F 42 °F 30 °F (1996)
Degree Days  
Heating Degree Days 11    
Growing Degree Days 4 (Base 50)    
Moisture  
Dew Point 38 °F    
Average Humidity 55    
Maximum Humidity 77    
Minimum Humidity 31    
Precipitation  
Precipitation 0.00 in - - ()
Sea Level Pressure  
Sea Level Pressure 29.98 in    
Wind  
Wind Speed 5 mph (South)    
Max Wind Speed 18 mph    
Max Gust Speed 25 mph    
Visibility 10 miles    
Events      
Averages and records for this station are not official NWS values.
T = Trace of Precipitation, MM = Missing Value Source: NWS Daily Summary

Daily Weather History Graph

Daily Weather History Graph

Search for Another Location

Airport:

Trip Planner

Search our weather history database for the weather conditions in past years. The results will help you decide how hot, cold, wet, or windy it might be!

Date:

Astronomy

Nov. 25, 2012 Rise Set
Actual Time 7:06 AM CST 5:21 PM CST
Civil Twilight 6:39 AM CST 5:48 PM CST
Nautical Twilight 6:09 AM CST 6:18 PM CST
Astronomical Twilight 5:39 AM CST 6:48 PM CST
Moon 3:34 PM CST (11/25) 4:27 AM CST (11/25)
Length of Visible Light 11h 08m
Length of Day
10h 15m
Waxing Gibbous, 93% of the Moon is Illuminated
Nov 25
Waxing Gibbous
Nov 28
Full
Dec 6
Last Quarter
Dec 13
New
Dec 19
First Quarter

Hourly Weather History & Observations

Time (CST) Temp. Windchill Dew Point Humidity Pressure Visibility Wind Dir Wind Speed Gust Speed Precip Events Conditions
12:15 AM 41.0 °F - 24.8 °F 53% 30.12 in 10.0 mi Calm Calm - N/A   Clear
12:35 AM 39.2 °F - 24.8 °F 56% 30.12 in 10.0 mi Calm Calm - N/A   Clear
12:55 AM 37.4 °F - 24.8 °F 60% 30.11 in 10.0 mi Calm Calm - N/A   Clear
1:15 AM 37.4 °F - 26.6 °F 65% 30.11 in 10.0 mi Calm Calm - N/A   Clear
1:35 AM 37.4 °F - 28.4 °F 70% 30.10 in 10.0 mi Calm Calm - N/A   Clear
1:55 AM 35.6 °F - 28.4 °F 75% 30.10 in 10.0 mi Calm Calm - N/A   Clear
2:15 AM 37.4 °F - 28.4 °F 70% 30.09 in 10.0 mi Calm Calm - N/A   Clear
2:35 AM 35.6 °F - 28.4 °F 75% 30.08 in 10.0 mi Calm Calm - N/A   Clear
2:55 AM 37.4 °F 33.8 °F 28.4 °F 70% 30.07 in 10.0 mi South 4.6 mph - N/A   Clear
3:15 AM 37.4 °F 34.9 °F 28.4 °F 70% 30.07 in 10.0 mi South 3.5 mph - N/A   Clear
3:35 AM 37.4 °F - 28.4 °F 70% 30.07 in 10.0 mi Calm Calm - N/A   Clear
3:55 AM 37.4 °F - 28.4 °F 70% 30.07 in 10.0 mi Calm Calm - N/A   Clear
4:15 AM 37.4 °F - 28.4 °F 70% 30.06 in 10.0 mi Calm Calm - N/A   Clear
4:35 AM 37.4 °F - 28.4 °F 70% 30.06 in 10.0 mi Calm Calm - N/A   Clear
4:55 AM 37.4 °F - 28.4 °F 70% 30.05 in 10.0 mi Calm Calm - N/A   Clear
5:15 AM 37.4 °F - 28.4 °F 70% 30.05 in 10.0 mi Calm Calm - N/A   Clear
5:35 AM 37.4 °F 34.9 °F 28.4 °F 70% 30.04 in 10.0 mi SE 3.5 mph - N/A   Clear
5:55 AM 37.4 °F - 28.4 °F 70% 30.04 in 10.0 mi Calm Calm - N/A   Clear
6:15 AM 35.6 °F - 28.4 °F 75% 30.04 in 10.0 mi Calm Calm - N/A   Clear
6:35 AM 35.6 °F 32.8 °F 28.4 °F 75% 30.04 in 10.0 mi SE 3.5 mph - N/A   Clear
6:55 AM 35.6 °F 32.8 °F 28.4 °F 75% 30.04 in 10.0 mi SE 3.5 mph - N/A   Clear
7:15 AM 35.6 °F - 28.4 °F 75% 30.04 in 10.0 mi Calm Calm - N/A   Clear
7:35 AM 35.6 °F 32.8 °F 28.4 °F 75% 30.04 in 10.0 mi ESE 3.5 mph - N/A   Clear
7:55 AM 37.4 °F - 28.4 °F 70% 30.04 in 10.0 mi Calm Calm - N/A   Clear
8:15 AM 41.0 °F 39.0 °F 30.2 °F 65% 30.04 in 10.0 mi SE 3.5 mph - N/A   Clear
8:35 AM 42.8 °F 40.1 °F 32.0 °F 66% 30.05 in 10.0 mi SE 4.6 mph - N/A   Clear
8:55 AM 46.4 °F 44.3 °F 32.0 °F 57% 30.05 in 10.0 mi SSE 4.6 mph - N/A   Clear
9:15 AM 50.0 °F - 32.0 °F 50% 30.05 in 10.0 mi South 8.1 mph - N/A   Clear
9:35 AM 53.6 °F - 32.0 °F 44% 30.04 in 10.0 mi South 12.7 mph 17.3 mph N/A   Clear
9:55 AM 59.0 °F - 33.8 °F 39% 30.04 in 10.0 mi South 12.7 mph - N/A   Clear
10:15 AM 60.8 °F - 33.8 °F 36% 30.04 in 10.0 mi SSW 16.1 mph 20.7 mph N/A   Clear
10:35 AM 62.6 °F - 33.8 °F 34% 30.03 in 10.0 mi SSW 13.8 mph 18.4 mph N/A   Clear
10:55 AM 62.6 °F - 35.6 °F 37% 30.02 in 10.0 mi South 16.1 mph 19.6 mph N/A   Clear
11:15 AM 64.4 °F - 35.6 °F 34% 30.01 in 10.0 mi South 18.4 mph 25.3 mph N/A   Clear
11:35 AM 66.2 °F - 37.4 °F 35% 30.00 in 10.0 mi SSW 16.1 mph 21.9 mph N/A   Clear
11:55 AM 68.0 °F - 37.4 °F 33% 29.99 in 10.0 mi SSW 17.3 mph 20.7 mph N/A   Clear
12:15 PM 68.0 °F - 37.4 °F 33% 29.97 in 10.0 mi SSW 12.7 mph 20.7 mph N/A   Clear
12:35 PM 68.0 °F - 37.4 °F 33% 29.96 in 10.0 mi South 16.1 mph 23.0 mph N/A   Clear
12:55 PM 69.8 °F - 37.4 °F 31% 29.95 in 10.0 mi SSW 15.0 mph 23.0 mph N/A   Clear
1:15 PM 69.8 °F - 39.2 °F 33% 29.93 in 10.0 mi South 13.8 mph 23.0 mph N/A   Clear
1:35 PM 71.6 °F - 41.0 °F 33% 29.92 in 10.0 mi South 15.0 mph 19.6 mph N/A   Clear
1:55 PM 71.6 °F - 41.0 °F 33% 29.91 in 10.0 mi South 18.4 mph 23.0 mph N/A   Clear
2:15 PM 71.6 °F - 41.0 °F 33% 29.90 in 10.0 mi SSW 15.0 mph 18.4 mph N/A   Clear
2:35 PM 71.6 °F - 42.8 °F 35% 29.90 in 10.0 mi SSW 10.4 mph - N/A   Clear
2:55 PM 73.4 °F - 42.8 °F 33% 29.89 in 10.0 mi South 13.8 mph 19.6 mph N/A   Clear
3:15 PM 73.4 °F - 42.8 °F 33% 29.89 in 10.0 mi South 15.0 mph 19.6 mph N/A   Clear
3:35 PM 73.4 °F - 42.8 °F 33% 29.88 in 10.0 mi South 15.0 mph - N/A   Clear
3:55 PM 73.4 °F - 44.6 °F 36% 29.88 in 10.0 mi South 17.3 mph 24.2 mph N/A   Clear
4:15 PM 71.6 °F - 44.6 °F 38% 29.88 in 10.0 mi South 15.0 mph 24.2 mph N/A   Clear
4:35 PM 71.6 °F - 44.6 °F 38% 29.88 in 10.0 mi South 16.1 mph 24.2 mph N/A   Clear
4:55 PM 71.6 °F - 44.6 °F 38% 29.88 in 10.0 mi South 11.5 mph 18.4 mph N/A   Clear
5:15 PM 69.8 °F - 44.6 °F 40% 29.88 in 10.0 mi South 9.2 mph - N/A   Clear
5:35 PM 69.8 °F - 46.4 °F 43% 29.87 in 10.0 mi South 10.4 mph 17.3 mph N/A   Clear
5:55 PM 68.0 °F - 46.4 °F 46% 29.87 in 10.0 mi South 10.4 mph - N/A   Clear
6:15 PM 68.0 °F - 46.4 °F 46% 29.87 in 10.0 mi South 10.4 mph - N/A   Clear
6:35 PM 66.2 °F - 46.4 °F 49% 29.87 in 10.0 mi South 10.4 mph - N/A   Clear
6:55 PM 66.2 °F - 46.4 °F 49% 29.88 in 10.0 mi South 10.4 mph - N/A   Clear
7:15 PM 64.4 °F - 46.4 °F 52% 29.88 in 10.0 mi South 10.4 mph - N/A   Clear
7:35 PM 64.4 °F - 46.4 °F 52% 29.88 in 10.0 mi South 9.2 mph - N/A   Clear
7:55 PM 64.4 °F - 46.4 °F 52% 29.88 in 10.0 mi South 8.1 mph - N/A   Clear
8:15 PM 62.6 °F - 46.4 °F 55% 29.89 in 10.0 mi South 9.2 mph - N/A   Clear
8:35 PM 62.6 °F - 48.2 °F 59% 29.89 in 10.0 mi South 9.2 mph - N/A   Clear
8:55 PM 62.6 °F - 48.2 °F 59% 29.89 in 10.0 mi South 9.2 mph - N/A   Clear
9:15 PM 62.6 °F - 48.2 °F 59% 29.90 in 10.0 mi South 9.2 mph - N/A   Clear
9:35 PM 62.6 °F - 50.0 °F 63% 29.90 in 10.0 mi South 8.1 mph - N/A   Clear
9:55 PM 62.6 °F - 50.0 °F 63% 29.90 in 10.0 mi South 6.9 mph - N/A   Clear
10:15 PM 60.8 °F - 50.0 °F 68% 29.91 in 10.0 mi South 5.8 mph - N/A   Clear
10:35 PM 60.8 °F - 51.8 °F 72% 29.91 in 10.0 mi South 6.9 mph - N/A   Clear
10:55 PM 60.8 °F - 51.8 °F 72% 29.91 in 10.0 mi South 5.8 mph - N/A   Clear
11:15 PM 60.8 °F - 51.8 °F 72% 29.91 in 10.0 mi South 8.1 mph - N/A   Clear
11:35 PM 60.8 °F - 51.8 °F 72% 29.92 in 10.0 mi South 8.1 mph - N/A   Clear
11:55 PM 60.8 °F - 53.6 °F 77% 29.92 in 10.0 mi South 9.2 mph - N/A   Clear